This is the latest recevied weather packets stored in our database for station/object 5B4APJ-13. If no packets are shown the sender has not sent any weather packets the latest 10 day(s).
| Time | Temp. | Humidity | Pressure | Rain* | Wind** | Luminosity | Snow |
|---|---|---|---|---|---|---|---|
| 1777870326 | 12.22° C | 78% | 1007.4 hPa | 0 mm | 1.79 m/s, 254° | 346 W/m² | - |
| 1777870026 | 12.22° C | 80% | 1007.5 hPa | 0 mm | 1.34 m/s, 145° | 145 W/m² | - |
| 1777869726 | 12.22° C | 80% | 1007.5 hPa | 0 mm | 0.89 m/s, 203° | 174 W/m² | - |
| 1777869425 | 11.67° C | 80% | 1007.5 hPa | 0.25 mm | 0.89 m/s, 167° | 238 W/m² | - |
| 1777869126 | 11.11° C | 80% | 1007.3 hPa | 0.25 mm | 0.89 m/s, 235° | 109 W/m² | - |
| 1777868825 | 11.11° C | 79% | 1007.4 hPa | 0.25 mm | 1.34 m/s, 245° | 56 W/m² | - |
| 1777868525 | 11.11° C | 78% | 1007.5 hPa | 0.25 mm | 2.68 m/s, 227° | 50 W/m² | - |
| 1777868225 | 11.11° C | 79% | 1007.5 hPa | 0.25 mm | 2.68 m/s, 229° | 51 W/m² | - |
| 1777867925 | 11.11° C | 79% | 1007.6 hPa | 0.25 mm | 1.79 m/s, 216° | 58 W/m² | - |
| 1777867625 | 11.11° C | 79% | 1007.4 hPa | 0.51 mm | 1.34 m/s, 217° | 49 W/m² | - |
| 1777867326 | 11.11° C | 77% | 1007.4 hPa | 1.27 mm | 4.47 m/s, 235° | 56 W/m² | - |
| 1777867025 | 11.11° C | 76% | 1006.9 hPa | 1.52 mm | 4.02 m/s, 240° | 39 W/m² | - |
| 1777866725 | 11.11° C | 76% | 1007.1 hPa | 1.78 mm | 6.26 m/s, 247° | 41 W/m² | - |
| 1777866425 | 10.56° C | 75% | 1007 hPa | 1.78 mm | 3.58 m/s, 241° | 30 W/m² | - |
| 1777866125 | 10.56° C | 76% | 1006.8 hPa | 1.78 mm | 4.47 m/s, 248° | 23 W/m² | - |
| 1777865825 | 10.56° C | 82% | 1007.1 hPa | 1.78 mm | 3.58 m/s, 233° | 10 W/m² | - |
| 1777865524 | 10.56° C | 81% | 1007.3 hPa | 1.78 mm | 3.58 m/s, 190° | 5 W/m² | - |
| 1777865225 | 10.56° C | 79% | 1007.5 hPa | 2.03 mm | 3.13 m/s, 231° | 4 W/m² | - |
| 1777864925 | 10° C | 80% | 1007.3 hPa | 2.03 mm | 4.92 m/s, 239° | 18 W/m² | - |
| 1777864625 | 9.44° C | 83% | 1007.2 hPa | 2.03 mm | 4.02 m/s, 237° | 14 W/m² | - |
| 1777864325 | 10° C | 83% | 1007.3 hPa | 2.03 mm | 4.47 m/s, 239° | 4 W/m² | - |
| 1777864025 | 10.56° C | 82% | 1007.5 hPa | 1.02 mm | 5.81 m/s, 238° | 2 W/m² | - |
| 1777863725 | 10.56° C | 83% | 1007 hPa | 1.02 mm | 5.36 m/s, 228° | 3 W/m² | - |
| 1777863426 | 10.56° C | 83% | 1007.5 hPa | 0.51 mm | 6.26 m/s, 232° | 1 W/m² | - |
| 1777863125 | 10° C | 84% | 1007.6 hPa | 0.51 mm | 1.79 m/s, 177° | 1 W/m² | - |
* Rain latest hour (hover to see other rain measurements)
** Current wind speed in m/s (hover to see current wind gust speed)